Location: Taaricht
(32.5378°N, 5.4251°W)
Time: 18:44:42
(UTC+00:00)

USA 234 - Pass Details

Date: 09 April 2020
Orbit: 1102 x 1106 km, 123.0° (Epoch: 14 May)

Event Time Altitude Azimuth Distance (km) Brightness Sun altitude
Rises 19:56:31 0° 51° (NE) 3,920 5.9 -14.9°
Reaches altitude 10° 19:59:13 10° 59° (ENE) 2,961 5.2 -15.4°
Maximum altitude 20:05:13 38° 126° (SE) 1,608 3.6 -16.6°
Drops below altitude 10° 20:11:12 10° 193° (SSW) 2,952 5.4 -17.7°
Sets 20:13:52 0° 201° (SSW) 3,907 6.1 -18.3°
